TimeEST,TemperatureF,Dew PointF,Humidity,Sea Level PressureIn,VisibilityMPH,Wind Direction,Wind SpeedMPH,Gust SpeedMPH,PrecipitationIn,Events,Conditions,WindDirDegrees,DateUTC
12:53 AM,19.9,8.1,60,30.17,10.0,NW,8.1,-,N/A,,Overcast,310,2013-01-21 05:53:00
1:53 AM,19.9,8.1,60,30.15,10.0,West,5.8,-,N/A,,Overcast,280,2013-01-21 06:53:00
2:53 AM,19.9,8.1,60,30.14,10.0,West,5.8,-,N/A,,Overcast,280,2013-01-21 07:53:00
3:53 AM,19.9,8.1,60,30.12,10.0,WNW,5.8,-,N/A,,Overcast,290,2013-01-21 08:53:00
4:53 AM,19.9,9.0,62,30.12,10.0,SW,9.2,-,N/A,,Overcast,230,2013-01-21 09:53:00
5:53 AM,19.9,10.0,65,30.09,10.0,West,12.7,-,N/A,,Overcast,260,2013-01-21 10:53:00
7:53 AM,19.0,9.0,65,30.09,10.0,West,15.0,-,N/A,,Overcast,270,2013-01-21 12:53:00
8:53 AM,18.0,10.0,71,30.09,3.0,West,13.8,-,0.00,Snow,Light Snow,270,2013-01-21 13:53:00
8:56 AM,17.6,10.4,73,30.04,1.8,West,13.8,-,0.00,Snow,Light Snow,270,2013-01-21 13:56:00
9:14 AM,19.4,10.4,68,30.03,3.0,West,13.8,-,0.00,Snow,Light Snow,270,2013-01-21 14:14:00
9:25 AM,17.6,8.6,68,30.04,10.0,West,13.8,-,0.00,,Overcast,270,2013-01-21 14:25:00
9:41 AM,17.6,8.6,68,30.04,10.0,WSW,20.7,25.3,0.00,,Overcast,250,2013-01-21 14:41:00
9:53 AM,18.0,8.1,65,30.09,10.0,West,18.4,-,0.00,,Overcast,260,2013-01-21 14:53:00
10:04 AM,19.4,8.6,63,30.04,7.0,West,19.6,-,0.00,Snow,Light Snow,270,2013-01-21 15:04:00
10:53 AM,18.0,7.0,62,30.09,10.0,West,18.4,28.8,0.00,,Overcast,270,2013-01-21 15:53:00
11:07 AM,17.6,10.4,73,30.04,2.5,West,16.1,21.9,0.00,Snow,Light Snow,280,2013-01-21 16:07:00
11:21 AM,17.6,10.4,73,30.04,1.0,West,17.3,-,0.00,Snow,Light Snow,280,2013-01-21 16:21:00
11:28 AM,17.6,10.4,73,30.04,0.8,West,18.4,26.5,0.00,Snow,Light Snow,280,2013-01-21 16:28:00
11:34 AM,17.6,10.4,73,30.04,2.0,West,20.7,26.5,0.00,Snow,Light Snow,270,2013-01-21 16:34:00
11:42 AM,17.6,10.4,73,30.03,5.0,West,19.6,-,0.00,Snow,Light Snow,260,2013-01-21 16:42:00
11:53 AM,17.1,8.1,68,30.07,4.0,West,18.4,24.2,0.00,Snow,Light Snow,270,2013-01-21 16:53:00
12:17 PM,17.6,6.8,63,30.02,10.0,West,21.9,31.1,0.00,,Overcast,270,2013-01-21 17:17:00
12:53 PM,18.0,5.0,57,30.07,10.0,West,23.0,28.8,0.00,,Overcast,270,2013-01-21 17:53:00
1:53 PM,17.1,-0.0,47,30.06,10.0,West,20.7,28.8,N/A,,Mostly Cloudy,270,2013-01-21 18:53:00
2:47 PM,17.6,6.8,63,30.03,2.5,West,25.3,32.2,0.00,Snow,Light Snow,270,2013-01-21 19:47:00
2:53 PM,16.0,6.1,65,30.08,1.5,West,18.4,32.2,0.00,Snow,Light Snow,270,2013-01-21 19:53:00
3:03 PM,17.6,6.8,63,30.03,2.5,West,15.0,-,0.00,Snow,Light Snow,270,2013-01-21 20:03:00
3:10 PM,17.6,6.8,63,30.03,8.0,West,26.5,35.7,0.00,,Overcast,260,2013-01-21 20:10:00
3:51 PM,17.6,6.8,63,30.04,1.8,West,23.0,33.4,0.00,Snow,Light Snow,280,2013-01-21 20:51:00
3:53 PM,16.0,7.0,68,30.09,1.2,West,24.2,34.5,0.00,Snow,Light Snow,280,2013-01-21 20:53:00
3:59 PM,15.8,8.6,73,30.05,0.5,West,24.2,34.5,0.00,Snow,Snow,270,2013-01-21 20:59:00
4:09 PM,15.8,8.6,73,30.05,0.8,West,20.7,27.6,0.00,Snow,Light Snow,270,2013-01-21 21:09:00
4:18 PM,15.8,6.8,68,30.06,2.5,West,25.3,32.2,0.00,Snow,Light Snow,260,2013-01-21 21:18:00
4:25 PM,15.8,5.0,62,30.06,6.0,West,21.9,32.2,0.00,Snow,Light Snow,270,2013-01-21 21:25:00
4:53 PM,15.1,5.0,64,30.12,9.0,West,19.6,29.9,0.00,,Overcast,270,2013-01-21 21:53:00
5:53 PM,12.9,-0.9,54,30.13,10.0,West,20.7,31.1,N/A,,Partly Cloudy,270,2013-01-21 22:53:00
6:49 PM,12.2,3.2,67,30.09,5.0,WSW,20.7,26.5,0.00,Snow,Light Snow,250,2013-01-21 23:49:00
6:53 PM,12.0,3.0,67,30.15,9.0,West,19.6,26.5,0.00,,Mostly Cloudy,260,2013-01-21 23:53:00
7:10 PM,12.2,3.2,67,30.10,10.0,West,13.8,-,N/A,,Overcast,270,2013-01-22 00:10:00
7:53 PM,12.0,-2.0,53,30.16,10.0,West,18.4,-,N/A,,Overcast,280,2013-01-22 00:53:00
8:53 PM,10.9,-2.9,54,30.17,10.0,West,24.2,31.1,N/A,,Partly Cloudy,270,2013-01-22 01:53:00
9:53 PM,10.0,-2.9,56,30.19,10.0,West,20.7,25.3,N/A,,Scattered Clouds,270,2013-01-22 02:53:00
10:53 PM,9.0,-4.0,56,30.21,10.0,West,15.0,25.3,N/A,,Clear,270,2013-01-22 03:53:00
11:53 PM,9.0,-2.9,59,30.21,10.0,West,12.7,-,N/A,,Clear,270,2013-01-22 04:53:00